Location: Caltech
(34.1382°N, 118.1253°W)
Time: 00:19:41
(UTC-07:00)

Oscar 11 - Visible Passes

Search period start: 19 April 2014 00:00
Search period end: 29 April 2014 00:00
Orbit: 618 x 631 km, 97.9° (Epoch: 17 April)

Date Brightness Start Highest point End Pass type
(mag) Time Alt. Az. Time Alt. Az. Time Alt. Az.
19 Apr 9.2 20:50:31 12° ENE 20:50:31 12° ENE 20:51:43 10° NE visible
19 Apr 9.1 22:27:46 26° NW 22:27:46 26° NW 22:29:53 10° NNW visible
20 Apr 8.8 21:09:18 19° NE 21:09:18 19° NE 21:11:33 10° NNE visible
20 Apr 9.6 22:46:33 19° NW 22:46:33 19° NW 22:48:10 10° NW visible
21 Apr 8.4 21:28:04 27° NE 21:28:04 27° NE 21:30:46 10° N visible
21 Apr 10.0 23:05:19 13° WNW 23:05:19 13° WNW 23:06:03 10° NW visible
22 Apr 8.1 21:46:50 37° NNE 21:46:50 37° NNE 21:49:43 10° N visible
23 Apr 8.2 22:05:36 41° NNW 22:05:36 41° NNW 22:08:27 10° NNW visible
24 Apr 9.2 20:47:07 11° ENE 20:47:07 11° ENE 20:48:26 10° NE visible
24 Apr 8.7 22:24:22 33° NW 22:24:22 33° NW 22:26:59 10° NNW visible
25 Apr 8.8 21:05:53 18° ENE 21:05:53 18° ENE 21:08:29 10° NNE visible
25 Apr 9.2 22:43:08 23° WNW 22:43:08 23° WNW 22:45:17 10° NW visible
26 Apr 8.3 21:24:39 28° NE 21:24:39 28° NE 21:27:45 10° NNE visible
26 Apr 9.8 23:01:54 15° WNW 23:01:54 15° WNW 23:03:15 10° NW visible
27 Apr 7.8 21:43:25 42° NE 21:43:25 42° NE 21:46:42 10° N visible
28 Apr 7.7 22:02:10 51° N 22:02:10 51° N 22:05:27 10° N visible
